DAL2753 KSEA-KGEG

Flight info

Callsign DAL2753
Flight time 0h 38m
Altitude 19000
Route SEA1 SEA ZADON ZELAK ZIRAN ZOOMR ZOOMR2
Aircraft A321/M-SDE3FGHIRWY/LB1

Departure

Time 2026-05-04 19:02
Airport Seattle–Tacoma International Airport (KSEA)

Arrival

Time 2026-05-04 19:40
Airport Spokane International Airport (KGEG)
Time Latitude Longitude Altitude Speed Heading
2026-05-04 18:34 47.44047 -122.30004 391 ft 0 kts 46°
2026-05-04 18:46 47.44041 -122.30016 394 ft 4 kts 86°
2026-05-04 18:46 47.44035 -122.30045 394 ft 4 kts 60°
2026-05-04 18:46 47.44019 -122.30075 394 ft 4 kts 32°
2026-05-04 18:47 47.43999 -122.30087 394 ft 0 kts
2026-05-04 18:53 47.44005 -122.30086 394 ft 4 kts
2026-05-04 18:53 47.44032 -122.30097 394 ft 3 kts 332°
2026-05-04 18:54 47.44042 -122.30119 394 ft 2 kts 301°
2026-05-04 18:54 47.44047 -122.30129 394 ft 1 kts 300°
2026-05-04 18:54 47.44051 -122.30203 394 ft 15 kts 263°
2026-05-04 18:54 47.44003 -122.30329 394 ft 11 kts 226°
2026-05-04 18:55 47.43996 -122.30424 394 ft 9 kts 294°
2026-05-04 18:55 47.44024 -122.30555 394 ft 2 kts 279°
2026-05-04 18:55 47.44026 -122.30573 394 ft 1 kts 281°
2026-05-04 18:56 47.44033 -122.30603 394 ft 8 kts 296°
2026-05-04 18:56 47.44123 -122.30635 394 ft 20 kts 358°
2026-05-04 18:56 47.44302 -122.30633 394 ft 29 kts
2026-05-04 18:56 47.44480 -122.30627 394 ft 24 kts
2026-05-04 18:57 47.44635 -122.30630 394 ft 17 kts 358°
2026-05-04 18:57 47.44713 -122.30630 394 ft 8 kts
2026-05-04 18:57 47.44766 -122.30629 394 ft 7 kts
2026-05-04 18:57 47.44843 -122.30628 394 ft 19 kts
2026-05-04 18:58 47.44991 -122.30628 394 ft 21 kts
2026-05-04 18:58 47.45133 -122.30626 394 ft 20 kts
2026-05-04 18:58 47.45265 -122.30625 394 ft 18 kts
2026-05-04 18:58 47.45389 -122.30624 394 ft 17 kts
2026-05-04 18:59 47.45503 -122.30623 391 ft 16 kts
2026-05-04 18:59 47.45608 -122.30622 392 ft 14 kts
2026-05-04 18:59 47.45702 -122.30621 390 ft 13 kts
2026-05-04 18:59 47.45786 -122.30620 393 ft 11 kts
2026-05-04 19:00 47.45870 -122.30619 394 ft 13 kts
2026-05-04 19:00 47.45952 -122.30619 394 ft 11 kts 355°
2026-05-04 19:00 47.46002 -122.30678 393 ft 9 kts 287°
2026-05-04 19:00 47.45984 -122.30756 394 ft 8 kts 227°
2026-05-04 19:01 47.45937 -122.30781 390 ft 7 kts 183°
2026-05-04 19:01 47.45833 -122.30783 391 ft 39 kts 180°
2026-05-04 19:01 47.45335 -122.30788 388 ft 102 kts 180°
2026-05-04 19:01 47.44444 -122.30795 390 ft 150 kts 180°
2026-05-04 19:02 47.43291 -122.30803 582 ft 171 kts 180°
2026-05-04 19:02 47.42128 -122.30785 1256 ft 167 kts 180°
2026-05-04 19:02 47.40953 -122.30666 1792 ft 175 kts 172°
2026-05-04 19:02 47.39797 -122.30002 2339 ft 180 kts 146°
2026-05-04 19:03 47.38970 -122.28654 2859 ft 184 kts 121°
2026-05-04 19:03 47.38524 -122.26829 3188 ft 194 kts 98°
2026-05-04 19:03 47.38535 -122.24806 3504 ft 201 kts 78°
2026-05-04 19:03 47.39014 -122.22840 3889 ft 206 kts 58°
2026-05-04 19:04 47.39755 -122.21055 4438 ft 200 kts 54°
2026-05-04 19:04 47.40523 -122.19349 4918 ft 199 kts 53°
2026-05-04 19:04 47.41289 -122.17662 5341 ft 202 kts 53°
2026-05-04 19:04 47.42078 -122.15924 5762 ft 205 kts 54°
2026-05-04 19:05 47.42833 -122.14076 5998 ft 219 kts 59°
2026-05-04 19:05 47.43561 -122.11982 6101 ft 240 kts 62°
2026-05-04 19:05 47.44336 -122.09643 6310 ft 265 kts 62°
2026-05-04 19:05 47.45154 -122.07144 6842 ft 274 kts 62°
2026-05-04 19:06 47.45994 -122.04581 7529 ft 278 kts 62°
2026-05-04 19:06 47.46834 -122.02035 8299 ft 280 kts 62°
2026-05-04 19:06 47.47699 -121.99430 9053 ft 283 kts 61°
2026-05-04 19:06 47.48574 -121.96808 9784 ft 286 kts 62°
2026-05-04 19:07 47.49469 -121.94134 10295 ft 298 kts 61°
2026-05-04 19:07 47.50428 -121.91283 10455 ft 320 kts 61°
2026-05-04 19:07 47.51449 -121.88244 10766 ft 336 kts 62°
2026-05-04 19:07 47.52477 -121.85157 11367 ft 341 kts 62°
2026-05-04 19:08 47.53528 -121.81992 12018 ft 344 kts 62°
2026-05-04 19:08 47.54588 -121.78790 12666 ft 348 kts 62°
2026-05-04 19:08 47.55566 -121.75486 13308 ft 352 kts 70°
2026-05-04 19:08 47.56106 -121.71913 13920 ft 359 kts 82°
2026-05-04 19:09 47.56162 -121.68189 14489 ft 364 kts 89°
2026-05-04 19:09 47.56104 -121.64433 15070 ft 367 kts 89°
2026-05-04 19:09 47.56051 -121.60682 15623 ft 371 kts 88°
2026-05-04 19:09 47.55999 -121.56832 16177 ft 374 kts 88°
2026-05-04 19:10 47.55951 -121.52963 16615 ft 378 kts 88°
2026-05-04 19:10 47.55901 -121.49050 17185 ft 381 kts 88°
2026-05-04 19:10 47.55849 -121.45096 17716 ft 385 kts 88°
2026-05-04 19:10 47.55793 -121.41108 18234 ft 389 kts 88°
2026-05-04 19:11 47.55735 -121.37139 18706 ft 392 kts 88°
2026-05-04 19:11 47.55674 -121.33076 18919 ft 393 kts 88°
2026-05-04 19:11 47.55610 -121.29048 18968 ft 388 kts 88°
2026-05-04 19:11 47.55544 -121.25074 18953 ft 385 kts 88°
2026-05-04 19:12 47.55479 -121.21151 18960 ft 385 kts 88°
2026-05-04 19:12 47.55347 -121.13245 18960 ft 384 kts 88°
2026-05-04 19:12 47.55276 -121.09321 18958 ft 385 kts 88°
2026-05-04 19:13 47.55203 -121.05363 18939 ft 385 kts 88°
2026-05-04 19:13 47.55131 -121.01388 18940 ft 385 kts 88°
2026-05-04 19:13 47.55059 -120.97425 18930 ft 386 kts 88°
2026-05-04 19:13 47.54985 -120.93493 18925 ft 386 kts 88°
2026-05-04 19:14 47.54909 -120.89519 18929 ft 386 kts 88°
2026-05-04 19:14 47.54832 -120.85550 18916 ft 385 kts 88°
2026-05-04 19:14 47.54756 -120.81589 18914 ft 385 kts 88°
2026-05-04 19:14 47.54676 -120.77626 18916 ft 385 kts 89°
2026-05-04 19:15 47.54596 -120.73652 18915 ft 386 kts 89°
2026-05-04 19:15 47.54513 -120.69689 18920 ft 385 kts 88°
2026-05-04 19:15 47.54426 -120.65721 18928 ft 386 kts 89°
2026-05-04 19:15 47.54336 -120.61755 18929 ft 385 kts 88°
2026-05-04 19:16 47.54247 -120.57785 18927 ft 385 kts 88°
2026-05-04 19:16 47.54162 -120.53816 18926 ft 385 kts 88°
2026-05-04 19:16 47.54073 -120.49847 18923 ft 385 kts 88°
2026-05-04 19:16 47.53983 -120.45928 18923 ft 385 kts 89°
2026-05-04 19:17 47.53891 -120.41954 18923 ft 385 kts 89°
2026-05-04 19:17 47.53768 -120.37998 18920 ft 385 kts 90°
2026-05-04 19:17 47.53603 -120.34029 18917 ft 386 kts 90°
2026-05-04 19:17 47.53413 -120.30073 18917 ft 386 kts 91°
2026-05-04 19:18 47.53213 -120.26114 18921 ft 386 kts 91°
2026-05-04 19:18 47.53013 -120.22144 18921 ft 386 kts 91°
2026-05-04 19:18 47.52818 -120.18182 18920 ft 386 kts 91°
2026-05-04 19:18 47.52630 -120.14268 18920 ft 386 kts 91°
2026-05-04 19:19 47.52442 -120.10298 18918 ft 386 kts 90°
2026-05-04 19:19 47.52253 -120.06336 18914 ft 386 kts 90°
2026-05-04 19:19 47.52063 -120.02368 18910 ft 386 kts 90°
2026-05-04 19:19 47.51873 -119.98404 18892 ft 386 kts 91°
2026-05-04 19:20 47.51682 -119.94440 18895 ft 386 kts 91°
2026-05-04 19:20 47.51491 -119.90524 18897 ft 386 kts 91°
2026-05-04 19:20 47.51298 -119.86561 18898 ft 386 kts 91°
2026-05-04 19:20 47.51105 -119.82604 18894 ft 386 kts 91°
2026-05-04 19:21 47.50908 -119.78646 18892 ft 385 kts 91°
2026-05-04 19:21 47.50710 -119.74680 18895 ft 385 kts 91°
2026-05-04 19:21 47.50510 -119.70725 18897 ft 386 kts 91°
2026-05-04 19:21 47.50308 -119.66766 18898 ft 386 kts 91°
2026-05-04 19:22 47.50102 -119.62808 18910 ft 386 kts 91°
2026-05-04 19:22 47.49899 -119.58903 18909 ft 385 kts 91°
2026-05-04 19:22 47.49694 -119.54949 18905 ft 385 kts 91°
2026-05-04 19:22 47.49488 -119.50984 18902 ft 386 kts 91°
2026-05-04 19:23 47.49280 -119.47024 18901 ft 386 kts 91°
2026-05-04 19:23 47.49070 -119.43066 18899 ft 386 kts 91°
2026-05-04 19:23 47.48859 -119.39147 18898 ft 385 kts 91°
2026-05-04 19:23 47.48647 -119.35187 18897 ft 386 kts 91°
2026-05-04 19:24 47.48436 -119.31235 18894 ft 386 kts 91°
2026-05-04 19:24 47.48224 -119.27326 18732 ft 377 kts 91°
2026-05-04 19:24 47.48011 -119.23498 18506 ft 369 kts 91°
2026-05-04 19:24 47.47802 -119.19733 18276 ft 365 kts 91°
2026-05-04 19:25 47.47595 -119.16006 18032 ft 363 kts 91°
2026-05-04 19:25 47.47388 -119.12290 17772 ft 362 kts 91°
2026-05-04 19:25 47.47183 -119.08633 17514 ft 360 kts 91°
2026-05-04 19:25 47.46977 -119.04944 17241 ft 359 kts 91°
2026-05-04 19:26 47.46767 -119.01270 16980 ft 358 kts 92°
2026-05-04 19:26 47.46557 -118.97606 16726 ft 356 kts 92°
2026-05-04 19:26 47.46349 -118.93972 16471 ft 355 kts 92°
2026-05-04 19:26 47.46141 -118.90334 16216 ft 353 kts 92°
2026-05-04 19:27 47.45937 -118.86768 15967 ft 352 kts 92°
2026-05-04 19:27 47.45726 -118.83123 15715 ft 351 kts 92°
2026-05-04 19:27 47.45518 -118.79573 15470 ft 350 kts 92°
2026-05-04 19:27 47.45303 -118.75990 15225 ft 348 kts 92°
2026-05-04 19:28 47.45089 -118.72424 14981 ft 347 kts 92°
2026-05-04 19:28 47.44877 -118.68871 14739 ft 346 kts 92°
2026-05-04 19:28 47.44668 -118.65374 14503 ft 345 kts 92°
2026-05-04 19:28 47.44454 -118.61849 14278 ft 344 kts 92°
2026-05-04 19:29 47.44241 -118.58322 14040 ft 344 kts 92°
2026-05-04 19:29 47.44028 -118.54805 13806 ft 343 kts 92°
2026-05-04 19:29 47.43814 -118.51295 13560 ft 342 kts 92°
2026-05-04 19:29 47.43597 -118.47799 13296 ft 341 kts 92°
2026-05-04 19:30 47.43383 -118.44359 13051 ft 340 kts 92°
2026-05-04 19:30 47.43166 -118.40887 12789 ft 339 kts 92°
2026-05-04 19:30 47.42951 -118.37424 12534 ft 337 kts 92°
2026-05-04 19:30 47.42738 -118.33980 12279 ft 336 kts 91°
2026-05-04 19:31 47.42779 -118.30562 12026 ft 330 kts 79°
2026-05-04 19:31 47.43305 -118.27278 11776 ft 326 kts 69°
2026-05-04 19:31 47.43975 -118.24119 11533 ft 325 kts 70°
2026-05-04 19:31 47.44640 -118.20930 11282 ft 324 kts 70°
2026-05-04 19:32 47.45298 -118.17741 11040 ft 323 kts 70°
2026-05-04 19:32 47.45947 -118.14566 10800 ft 319 kts 70°
2026-05-04 19:32 47.46577 -118.11482 10449 ft 316 kts 71°
2026-05-04 19:32 47.47212 -118.08383 10162 ft 311 kts 71°
2026-05-04 19:33 47.47829 -118.05370 10020 ft 301 kts 71°
2026-05-04 19:33 47.48428 -118.02439 9844 ft 294 kts 71°
2026-05-04 19:33 47.49026 -117.99521 9349 ft 301 kts 71°
2026-05-04 19:33 47.49598 -117.96548 9057 ft 297 kts 77°
2026-05-04 19:34 47.49684 -117.93537 8444 ft 293 kts 96°
2026-05-04 19:34 47.49129 -117.90701 7708 ft 292 kts 114°
2026-05-04 19:34 47.48078 -117.88171 7254 ft 278 kts 121°
2026-05-04 19:34 47.47067 -117.85863 7085 ft 260 kts 120°
2026-05-04 19:35 47.46474 -117.84322 6914 ft 258 kts 110°
2026-05-04 19:35 47.46022 -117.81862 6758 ft 242 kts 93°
2026-05-04 19:35 47.46074 -117.79437 6580 ft 231 kts 77°
2026-05-04 19:35 47.46810 -117.76563 6283 ft 223 kts 55°
2026-05-04 19:36 47.47437 -117.75333 6104 ft 220 kts 45°
2026-05-04 19:36 47.48493 -117.73751 5847 ft 216 kts 43°
2026-05-04 19:36 47.49526 -117.72209 5564 ft 205 kts 44°
2026-05-04 19:36 47.50505 -117.70747 5294 ft 194 kts 44°
2026-05-04 19:37 47.51428 -117.69368 5073 ft 182 kts 45°
2026-05-04 19:37 47.52294 -117.68074 4834 ft 172 kts 45°
2026-05-04 19:37 47.53094 -117.66877 4612 ft 157 kts 45°
2026-05-04 19:37 47.53847 -117.65751 4405 ft 152 kts 46°
2026-05-04 19:38 47.54583 -117.64649 4211 ft 149 kts 46°
2026-05-04 19:38 47.55305 -117.63566 4011 ft 147 kts 45°
2026-05-04 19:38 47.56030 -117.62481 3824 ft 148 kts 45°
2026-05-04 19:38 47.56746 -117.61407 3637 ft 148 kts 45°
2026-05-04 19:39 47.57472 -117.60318 3442 ft 146 kts 46°
2026-05-04 19:39 47.58179 -117.59258 3242 ft 147 kts 46°
2026-05-04 19:39 47.58900 -117.58176 3064 ft 146 kts 46°
2026-05-04 19:39 47.59610 -117.57109 2853 ft 146 kts 46°
2026-05-04 19:40 47.60325 -117.56036 2646 ft 146 kts 45°
2026-05-04 19:40 47.61039 -117.54962 2450 ft 145 kts 46°
2026-05-04 19:40 47.61707 -117.53954 2373 ft 126 kts 46°
2026-05-04 19:40 47.62155 -117.53281 2367 ft 31 kts 43°
2026-05-04 19:41 47.62276 -117.53162 2370 ft 17 kts 30°
2026-05-04 19:41 47.62386 -117.53109 2369 ft 16 kts 15°
2026-05-04 19:41 47.62489 -117.53072 2368 ft 13 kts
2026-05-04 19:41 47.62518 -117.53095 2368 ft 3 kts 296°
2026-05-04 19:42 47.62519 -117.53120 2368 ft 2 kts 266°
2026-05-04 19:42 47.62516 -117.53134 2368 ft 1 kts 252°
2026-05-04 19:42 47.62514 -117.53145 2368 ft 3 kts 249°
2026-05-04 19:42 47.62501 -117.53217 2368 ft 8 kts 275°
2026-05-04 19:43 47.62524 -117.53274 2368 ft 6 kts 320°
2026-05-04 19:43 47.62552 -117.53303 2368 ft 4 kts 326°
2026-05-04 19:43 47.62573 -117.53326 2368 ft 3 kts 321°
2026-05-04 19:43 47.62587 -117.53345 2368 ft 3 kts 318°
2026-05-04 19:44 47.62601 -117.53365 2368 ft 2 kts 314°
2026-05-04 19:44 47.62609 -117.53384 2368 ft 3 kts 294°
2026-05-04 19:44 47.62605 -117.53407 2368 ft 1 kts 244°
2026-05-04 19:44 47.62600 -117.53414 2368 ft 1 kts 231°
2026-05-04 19:45 47.62598 -117.53419 2368 ft 2 kts 231°
2026-05-04 19:45 47.62587 -117.53438 2368 ft 2 kts 231°
2026-05-04 19:45 47.62584 -117.53445 2368 ft 0 kts 231°